Main page
Satellite images Climate Cyclones Lightning AirportsFAQ Languages Contact Newsletter About
Weather : Europe Africa North America South America Asia Australia-Oceania Others

yangon-mm, Yangon, Yangon International Airport

48097

latitude: , longitude: Myanmar, elevation: 16-46N m


METAR: VYYY 180200Z 25003KT 7000 BKN015 FEW020CB OVC100 28/25 Q1002